IZ4UFQ-10 Weather Reports


Display with metric or nautical units.
time (UTC)temp
F
wind
direction
speed
MPH
gust
MPH
rain 1hr
in
rain 24hr
in
rain mn
in
humidity
%
barometer
mb
20260905220206 81 179 0.0 0.0 0.00 0.00 0.00 52 1017.2
20260905215706 81 179 0.0 0.0 0.00 0.00 0.00 52 1017.1
20260905215206 81 179 0.0 0.0 0.00 0.00 0.00 51 1017.0
20260905214706 81 180 0.0 0.0 0.00 0.00 0.00 51 1017.0
20260905214205 81 181 0.0 0.0 0.00 0.00 0.00 51 1017.0
20260905213705 82 195 0.0 0.0 0.00 0.00 0.00 51 1016.9
20260905213205 82 195 0.0 0.0 0.00 0.00 0.00 50 1016.8
20260905212704 82 195 0.0 0.0 0.00 0.00 0.00 50 1016.7
20260905212204 82 195 0.0 0.0 0.00 0.00 0.00 50 1016.7
20260905211704 82 197 0.0 0.0 0.00 0.00 0.00 51 1016.7
20260905211204 82 204 0.0 0.0 0.00 0.00 0.00 50 1016.7
20260905210703 82 204 0.0 0.0 0.00 0.00 0.00 50 1016.6
20260905210203 83 204 0.0 0.0 0.00 0.00 0.00 50 1016.5
20260905205703 83 204 0.0 0.0 0.00 0.00 0.00 50 1016.5
20260905205202 82 191 0.0 0.0 0.00 0.00 0.00 49 1016.5
20260905204734 83 191 0.0 0.0 0.00 0.00 0.00 49 1016.6
20260905204702 83 191 0.0 0.0 0.00 0.00 0.00 49 1016.6
20260905204202 83 190 0.0 0.0 0.00 0.00 0.00 49 1016.5
20260905203702 83 191 0.0 0.0 0.00 0.00 0.00 49 1016.5
20260905203201 83 192 0.0 0.0 0.00 0.00 0.00 49 1016.4
20260905202701 83 192 0.0 0.0 0.00 0.00 0.00 49 1016.4
20260905202201 83 192 0.0 0.0 0.00 0.00 0.00 49 1016.4
20260905201700 83 184 0.0 0.0 0.00 0.00 0.00 50 1016.4
20260905201200 83 184 0.0 0.0 0.00 0.00 0.00 50 1016.4
20260905200700 83 184 0.0 0.0 0.00 0.00 0.00 50 1016.4
20260905200200 83 175 0.0 0.0 0.00 0.00 0.00 51 1016.3
20260905195659 83 258 0.0 0.0 0.00 0.00 0.00 52 1016.3
20260905195159 83 265 0.0 0.0 0.00 0.00 0.00 52 1016.3
20260905194659 83 265 0.0 0.0 0.00 0.00 0.00 52 1016.3
20260905194158 83 265 0.0 0.0 0.00 0.00 0.00 52 1016.2
20260905193658 84 265 0.0 0.0 0.00 0.00 0.00 52 1016.3
20260905193158 84 265 0.0 0.0 0.00 0.00 0.00 52 1016.2
20260905192658 84 265 0.0 0.0 0.00 0.00 0.00 49 1016.1
20260905192157 84 265 0.0 0.0 0.00 0.00 0.00 49 1016.1
20260905191657 85 266 0.0 0.0 0.00 0.00 0.00 51 1016.0
20260905191157 85 266 0.0 0.0 0.00 0.00 0.00 50 1016.0
20260905190656 85 267 0.0 0.0 0.00 0.00 0.00 50 1015.9
20260905190156 86 267 0.0 0.0 0.00 0.00 0.00 50 1015.9
20260905185656 86 267 0.0 0.0 0.00 0.00 0.00 50 1015.8
20260905185155 86 266 0.0 0.0 0.00 0.00 0.00 49 1015.8
20260905184655 86 267 0.0 0.0 0.00 0.00 0.00 48 1015.7
20260905184155 86 267 0.0 0.0 0.00 0.00 0.00 50 1015.7
20260905183655 87 266 0.0 0.0 0.00 0.00 0.00 49 1015.6
20260905183238 87 267 0.0 0.0 0.00 0.00 0.00 49 1015.5
20260905183154 87 267 0.0 0.0 0.00 0.00 0.00 49 1015.5
20260905182654 87 267 0.0 0.0 0.00 0.00 0.00 49 1015.5
20260905182154 88 267 0.0 0.0 0.00 0.00 0.00 49 1015.4
20260905181653 88 267 0.0 0.0 0.00 0.00 0.00 48 1015.3
20260905181153 88 267 0.0 0.0 0.00 0.00 0.00 48 1015.2
20260905180653 88 272 0.0 0.0 0.00 0.00 0.00 48 1015.2
20260905180153 88 272 0.0 0.0 0.00 0.00 0.00 48 1015.1
20260905175652 89 275 0.0 0.0 0.00 0.00 0.00 48 1015.2
20260905175152 89 276 0.0 0.0 0.00 0.00 0.00 47 1015.2
20260905174652 90 276 0.0 0.0 0.00 0.00 0.00 47 1015.1
20260905174152 90 275 0.0 0.0 0.00 0.00 0.00 46 1015.1
20260905173651 90 276 0.0 0.0 0.00 0.00 0.00 45 1015.0
20260905173151 91 278 0.0 0.0 0.00 0.00 0.00 45 1014.9
20260905172651 91 278 0.0 0.0 0.00 0.00 0.00 44 1014.9
20260905172150 92 297 0.0 0.0 0.00 0.00 0.00 43 1014.9
20260905171650 93 305 0.0 0.0 0.00 0.00 0.00 42 1014.9
20260905171150 93 314 0.0 0.0 0.00 0.00 0.00 41 1014.8
20260905170649 94 328 0.0 0.0 0.00 0.00 0.00 39 1014.8
20260905170149 94 330 0.0 0.0 0.00 0.00 0.00 38 1014.7
20260905165649 94 331 0.0 0.0 0.00 0.00 0.00 34 1014.7
20260905165149 94 334 0.0 0.0 0.00 0.00 0.00 33 1014.6
20260905164648 94 334 0.0 0.0 0.00 0.00 0.00 33 1014.6
20260905164148 94 333 0.0 0.0 0.00 0.00 0.00 33 1014.5
20260905163648 94 333 0.0 0.0 0.00 0.00 0.00 32 1014.5
20260905163147 95 325 0.0 0.0 0.00 0.00 0.00 32 1014.5
20260905162647 95 331 0.0 0.0 0.00 0.00 0.00 32 1014.4
20260905162147 95 322 0.0 0.0 0.00 0.00 0.00 32 1014.4
20260905161647 95 326 0.0 0.0 0.00 0.00 0.00 32 1014.4
20260905161146 95 324 0.0 0.0 0.00 0.00 0.00 32 1014.4
20260905160646 95 334 0.0 0.0 0.00 0.00 0.00 32 1014.3
20260905160146 96 336 0.0 0.0 0.00 0.00 0.00 31 1014.4
20260905155645 95 317 0.0 0.0 0.00 0.00 0.00 32 1014.3
20260905155145 95 316 0.0 0.0 0.00 0.00 0.00 32 1014.3
20260905154645 95 354 0.0 0.0 0.00 0.00 0.00 32 1014.3
20260905154145 95 359 0.0 0.0 0.00 0.00 0.00 32 1014.3
20260905153644 96 4 0.0 0.0 0.00 0.00 0.00 31 1014.3
20260905153144 97 354 0.0 0.0 0.00 0.00 0.00 31 1014.2
20260905152644 97 283 0.0 0.0 0.00 0.00 0.00 31 1014.2
20260905152143 97 266 0.0 0.0 0.00 0.00 0.00 30 1014.2
20260905151643 96 251 0.0 0.0 0.00 0.00 0.00 31 1014.2
20260905151143 96 251 0.0 0.0 0.00 0.00 0.00 31 1014.3
20260905150643 96 257 0.0 0.0 0.00 0.00 0.00 31 1014.2
20260905150142 96 310 0.0 0.0 0.00 0.00 0.00 31 1014.3
20260905145642 96 341 0.0 0.0 0.00 0.00 0.00 31 1014.3
20260905145142 95 335 0.0 0.0 0.00 0.00 0.00 32 1014.3
20260905144641 95 16 0.0 0.0 0.00 0.00 0.00 31 1014.3
20260905144141 95 4 0.0 0.0 0.00 0.00 0.00 31 1014.4
20260905143641 95 299 0.0 0.0 0.00 0.00 0.00 31 1014.4
20260905143141 95 38 0.0 0.0 0.00 0.00 0.00 31 1014.5
20260905142640 95 316 0.0 0.0 0.00 0.00 0.00 31 1014.5
20260905142140 95 331 0.0 0.0 0.00 0.00 0.00 31 1014.5
20260905141640 95 44 0.0 0.0 0.00 0.00 0.00 31 1014.5
20260905141139 95 354 0.0 0.0 0.00 0.00 0.00 31 1014.6
20260905140639 96 146 0.0 0.0 0.00 0.00 0.00 30 1014.6
20260905140139 96 160 0.0 0.0 0.00 0.00 0.00 30 1014.6
20260905135639 96 162 0.0 0.0 0.00 0.00 0.00 30 1014.6
20260905135138 96 145 0.0 0.0 0.00 0.00 0.00 31 1014.7
20260905134638 95 145 0.0 0.0 0.00 0.00 0.00 31 1014.8
20260905134138 94 145 0.0 0.0 0.00 0.00 0.00 31 1014.8
20260905133637 94 147 0.0 0.0 0.00 0.00 0.00 31 1014.9
20260905133137 94 28 0.0 0.0 0.00 0.00 0.00 31 1015.0
20260905132637 93 28 0.0 0.0 0.00 0.00 0.00 32 1015.1
20260905132136 93 28 0.0 0.0 0.00 0.00 0.00 31 1015.1
20260905131636 94 343 0.0 0.0 0.00 0.00 0.00 31 1015.1
20260905131136 93 349 0.0 0.0 0.00 0.00 0.00 31 1015.2
20260905130636 94 346 0.0 0.0 0.00 0.00 0.00 31 1015.2
20260905130135 94 309 0.0 0.0 0.00 0.00 0.00 31 1015.4
20260905125635 93 14 0.0 0.0 0.00 0.00 0.00 31 1015.3
20260905125135 93 14 0.0 0.0 0.00 0.00 0.00 31 1015.4
20260905124634 93 18 0.0 0.0 0.00 0.00 0.00 31 1015.5
20260905124134 93 359 0.0 0.0 0.00 0.00 0.00 31 1015.5
20260905123634 93 46 0.0 0.0 0.00 0.00 0.00 32 1015.5
20260905123134 92 4 0.0 0.0 0.00 0.00 0.00 32 1015.6
20260905122633 92 10 0.0 0.0 0.00 0.00 0.00 32 1015.6
20260905122133 92 26 0.0 0.0 0.00 0.00 0.00 32 1015.6
20260905121633 92 16 0.0 0.0 0.00 0.00 0.00 32 1015.8
20260905121132 92 8 0.0 0.0 0.00 0.00 0.00 31 1015.8
20260905120632 92 14 0.0 0.0 0.00 0.00 0.00 31 1015.9
20260905120132 92 306 0.0 0.0 0.00 0.00 0.00 31 1015.9
20260905115632 91 25 0.0 0.0 0.00 0.00 0.00 32 1015.9
20260905115131 91 359 0.0 0.0 0.00 0.00 0.00 32 1016.0
20260905114631 92 4 0.0 0.0 0.00 0.00 0.00 31 1015.9
20260905114131 92 9 0.0 0.0 0.00 0.00 0.00 32 1015.9
20260905113630 92 340 0.0 0.0 0.00 0.00 0.00 31 1015.9
20260905113130 92 310 0.0 0.0 0.00 0.00 0.00 30 1015.8
20260905112630 92 359 0.0 0.0 0.00 0.00 0.00 30 1015.8
20260905112130 92 12 0.0 0.0 0.00 0.00 0.00 29 1015.8
20260905111629 92 285 0.0 0.0 0.00 0.00 0.00 30 1015.9
20260905111129 92 359 0.0 0.0 0.00 0.00 0.00 30 1016.0
20260905110629 91 300 0.0 0.0 0.00 0.00 0.00 30 1016.0
20260905110128 91 334 0.0 0.0 0.00 0.00 0.00 31 1016.1
20260905105628 90 359 0.0 0.0 0.00 0.00 0.00 33 1016.0
20260905105128 90 12 0.0 0.0 0.00 0.00 0.00 33 1016.0
20260905104628 90 330 0.0 0.0 0.00 0.00 0.00 33 1016.1
20260905104127 90 330 0.0 0.0 0.00 0.00 0.00 33 1016.2
20260905103627 90 312 0.0 0.0 0.00 0.00 0.00 33 1016.2
20260905103127 90 27 0.0 0.0 0.00 0.00 0.00 33 1016.1
20260905102626 89 291 0.0 0.0 0.00 0.00 0.00 33 1016.2
20260905102126 89 4 0.0 0.0 0.00 0.00 0.00 34 1016.3
20260905101626 89 330 0.0 0.0 0.00 0.00 0.00 34 1016.3
20260905101126 89 313 0.0 0.0 0.00 0.00 0.00 35 1016.3
20260905100625 88 332 0.0 0.0 0.00 0.00 0.00 35 1016.4
20260905100125 88 287 0.0 0.0 0.00 0.00 0.00 37 1016.4
20260905095625 88 285 0.0 0.0 0.00 0.00 0.00 37 1016.4
20260905095124 87 306 0.0 0.0 0.00 0.00 0.00 37 1016.5
20260905094624 87 315 0.0 0.0 0.00 0.00 0.00 36 1016.6
20260905094124 88 303 0.0 0.0 0.00 0.00 0.00 35 1016.5
20260905093623 88 287 0.0 0.0 0.00 0.00 0.00 37 1016.6
20260905093123 87 285 0.0 0.0 0.00 0.00 0.00 37 1016.6
20260905092623 87 340 0.0 0.0 0.00 0.00 0.00 37 1016.7
20260905092123 87 302 0.0 0.0 0.00 0.00 0.00 36 1016.7
20260905091622 87 298 0.0 0.0 0.00 0.00 0.00 37 1016.7
20260905091122 87 253 0.0 0.0 0.00 0.00 0.00 37 1016.7
20260905090622 87 289 0.0 0.0 0.00 0.00 0.00 39 1016.7
20260905090121 87 310 0.0 0.0 0.00 0.00 0.00 37 1016.7
20260905085621 87 313 0.0 0.0 0.00 0.00 0.00 39 1016.6
20260905085121 86 315 0.0 0.0 0.00 0.00 0.00 38 1016.6
20260905084621 86 247 0.0 0.0 0.00 0.00 0.00 39 1016.5
20260905084120 86 251 0.0 0.0 0.00 0.00 0.00 39 1016.4
20260905083620 85 277 0.0 0.0 0.00 0.00 0.00 40 1016.4
20260905083120 85 248 0.0 0.0 0.00 0.00 0.00 41 1016.4
20260905082619 85 241 0.0 0.0 0.00 0.00 0.00 41 1016.4
20260905082119 85 256 0.0 0.0 0.00 0.00 0.00 41 1016.4
20260905081619 85 275 0.0 0.0 0.00 0.00 0.00 42 1016.3
20260905081119 85 296 0.0 0.0 0.00 0.00 0.00 42 1016.3
20260905080618 85 245 0.0 0.0 0.00 0.00 0.00 42 1016.2
20260905080118 85 279 0.0 0.0 0.00 0.00 0.00 42 1016.1
20260905075618 84 292 0.0 0.0 0.00 0.00 0.00 42 1016.1
20260905075117 84 260 0.0 0.0 0.00 0.00 0.00 41 1016.0
20260905074617 84 243 0.0 0.0 0.00 0.00 0.00 41 1016.0
20260905074117 84 264 0.0 0.0 0.00 0.00 0.00 40 1015.9
20260905073617 84 266 0.0 0.0 0.00 0.00 0.00 40 1015.9
20260905073116 84 265 0.0 0.0 0.00 0.00 0.00 39 1015.9
20260905072616 84 301 0.0 0.0 0.00 0.00 0.00 39 1015.8
20260905072116 84 296 0.0 0.0 0.00 0.00 0.00 40 1015.7
20260905071615 83 243 0.0 0.0 0.00 0.00 0.00 40 1015.7
20260905071115 83 305 0.0 0.0 0.00 0.00 0.00 40 1015.9
20260905070615 83 235 0.0 0.0 0.00 0.00 0.00 40 1015.8
20260905070115 83 244 0.0 0.0 0.00 0.00 0.00 42 1015.8
20260905065614 82 236 0.0 0.0 0.00 0.00 0.00 43 1015.8
20260905065114 82 233 0.0 0.0 0.00 0.00 0.00 44 1015.8
20260905064614 82 243 0.0 0.0 0.00 0.00 0.00 44 1015.8
20260905064113 81 221 0.0 0.0 0.00 0.00 0.00 44 1015.7
20260905063613 81 204 0.0 0.0 0.00 0.00 0.00 45 1015.6
20260905063113 81 209 0.0 0.0 0.00 0.00 0.00 45 1015.5
20260905062613 81 226 0.0 0.0 0.00 0.00 0.00 46 1015.4
20260905062112 80 209 0.0 0.0 0.00 0.00 0.00 46 1015.2
20260905061612 80 204 0.0 0.0 0.00 0.00 0.00 46 1015.2
20260905061112 80 218 0.0 0.0 0.00 0.00 0.00 46 1015.3
20260905060611 79 222 0.0 0.0 0.00 0.00 0.00 47 1015.2
20260905060111 79 234 0.0 0.0 0.00 0.00 0.00 47 1015.3
20260905055611 79 206 0.0 0.0 0.00 0.00 0.00 48 1015.3
20260905055111 78 223 0.0 0.0 0.00 0.00 0.00 49 1015.3
20260905054610 78 255 0.0 0.0 0.00 0.00 0.00 49 1015.2
20260905054110 78 216 0.0 0.0 0.00 0.00 0.00 49 1015.2
20260905053610 77 215 0.0 0.0 0.00 0.00 0.00 49 1015.1
20260905053109 77 215 0.0 0.0 0.00 0.00 0.00 50 1015.2
20260905052609 77 215 0.0 0.0 0.00 0.00 0.00 50 1015.3
20260905052109 76 214 0.0 0.0 0.00 0.00 0.00 51 1015.3
20260905051608 76 214 0.0 0.0 0.00 0.00 0.00 51 1015.2
20260905051108 76 214 0.0 0.0 0.00 0.00 0.00 51 1015.2
20260905050608 76 212 0.0 0.0 0.00 0.00 0.00 52 1015.2
20260905050108 76 212 0.0 0.0 0.00 0.00 0.00 52 1015.1
20260905045607 76 212 0.0 0.0 0.00 0.00 0.00 52 1015.1
20260905045107 76 212 0.0 0.0 0.00 0.00 0.00 52 1015.1
20260905044607 76 212 0.0 0.0 0.00 0.00 0.00 52 1015.2
20260905044106 76 212 0.0 0.0 0.00 0.00 0.00 51 1015.3
20260905043606 76 212 0.0 0.0 0.00 0.00 0.00 51 1015.3
20260905043106 77 212 0.0 0.0 0.00 0.00 0.00 50 1015.2
20260905042606 77 212 0.0 0.0 0.00 0.00 0.00 50 1015.1
20260905042106 77 212 0.0 0.0 0.00 0.00 0.00 50 1015.2
20260905041605 77 211 0.0 0.0 0.00 0.00 0.00 49 1015.2
20260905041105 77 223 0.0 0.0 0.00 0.00 0.00 49 1015.2
20260905040604 77 237 0.0 0.0 0.00 0.00 0.00 49 1015.2
20260905040104 77 243 0.0 0.0 0.00 0.00 0.00 49 1015.2
20260905035604 77 274 0.0 0.0 0.00 0.00 0.00 49 1015.2
20260905035104 78 274 0.0 0.0 0.00 0.00 0.00 49 1015.2
20260905034640 78 274 0.0 0.0 0.00 0.00 0.00 49 1015.2
20260905034603 78 274 0.0 0.0 0.00 0.00 0.00 49 1015.2
20260905034103 78 220 0.0 0.0 0.00 0.00 0.00 49 1015.2
20260905033603 78 234 0.0 0.0 0.00 0.00 0.00 49 1015.0
20260905033102 77 235 0.0 0.0 0.00 0.00 0.00 49 1014.9
20260905032602 77 237 0.0 0.0 0.00 0.00 0.00 49 1014.9
20260905032102 78 244 0.0 0.0 0.00 0.00 0.00 49 1014.9
20260905031602 78 250 0.0 0.0 0.00 0.00 0.00 48 1014.8
20260905031101 78 249 0.0 0.0 0.00 0.00 0.00 48 1014.8
20260905030601 78 249 0.0 0.0 0.00 0.00 0.00 48 1014.9
20260905030101 78 242 0.0 0.0 0.00 0.00 0.00 48 1014.8
20260905025600 78 242 0.0 0.0 0.00 0.00 0.00 48 1014.9
20260905025100 78 239 0.0 0.0 0.00 0.00 0.00 47 1014.9
20260905024600 79 242 0.0 0.0 0.00 0.00 0.00 47 1014.9
20260905024100 79 271 0.0 0.0 0.00 0.00 0.00 47 1014.9
20260905023559 79 251 0.0 0.0 0.00 0.00 0.00 47 1014.9
20260905023059 79 265 0.0 0.0 0.00 0.00 0.00 47 1014.9
20260905022559 79 253 0.0 0.0 0.00 0.00 0.00 47 1014.9
20260905022058 79 247 0.0 0.0 0.00 0.00 0.00 47 1014.9
20260905021558 79 239 0.0 0.0 0.00 0.00 0.00 47 1014.9
20260905021058 79 243 0.0 0.0 0.00 0.00 0.00 46 1014.9
20260905020558 79 252 0.0 0.0 0.00 0.00 0.00 46 1014.9
20260905020058 79 260 0.0 0.0 0.00 0.00 0.00 46 1014.9
20260905015557 79 224 0.0 0.0 0.00 0.00 0.00 46 1014.9
20260905015057 79 235 0.0 0.0 0.00 0.00 0.00 46 1014.8
20260905014556 80 268 0.0 0.0 0.00 0.00 0.00 46 1014.9
20260905014056 80 228 0.0 0.0 0.00 0.00 0.00 46 1014.9
20260905013556 80 231 0.0 0.0 0.00 0.00 0.00 45 1015.0
20260905013055 80 236 0.0 0.0 0.00 0.00 0.00 45 1015.0
20260905012555 80 230 0.0 0.0 0.00 0.00 0.00 45 1015.0
20260905012055 80 210 0.0 0.0 0.00 0.00 0.00 45 1015.0
20260905011555 80 205 0.0 0.0 0.00 0.00 0.00 45 1015.0
20260905011054 80 224 0.0 0.0 0.00 0.00 0.00 45 1015.0
20260905010554 80 195 0.0 0.0 0.00 0.00 0.00 45 1015.0
20260905010054 80 200 0.0 0.0 0.00 0.00 0.00 45 1014.9
20260905005553 80 218 0.0 0.0 0.00 0.00 0.00 45 1014.9
20260905005053 80 224 0.0 0.0 0.00 0.00 0.00 45 1014.9
20260905004553 80 233 0.0 0.0 0.00 0.00 0.00 45 1014.9
20260905004053 80 228 0.0 0.0 0.00 0.00 0.00 45 1015.0
20260905003552 80 204 0.0 0.0 0.00 0.00 0.00 45 1015.0
20260905003052 80 222 0.0 0.0 0.00 0.00 0.00 45 1015.0
20260905002552 80 220 0.0 0.0 0.00 0.00 0.00 45 1015.1
20260905002051 80 229 0.0 0.0 0.00 0.00 0.00 45 1015.1
20260905001551 80 251 0.0 0.0 0.00 0.00 0.00 44 1015.2
20260905001051 80 226 0.0 0.0 0.00 0.00 0.00 44 1015.3
20260905000551 80 213 0.0 0.0 0.00 0.00 0.00 45 1015.2
20260905000050 80 203 0.0 0.0 0.00 0.00 0.00 44 1015.3
20260904235550 81 239 0.0 0.0 0.00 0.00 0.00 44 1015.4
20260904235050 81 221 0.0 0.0 0.00 0.00 0.00 44 1015.4
20260904234550 81 225 0.0 0.0 0.00 0.00 0.00 44 1015.5
20260904234049 81 244 0.0 0.0 0.00 0.00 0.00 44 1015.5
20260904233549 81 215 0.0 0.0 0.00 0.00 0.00 44 1015.5
20260904233049 81 204 0.0 0.0 0.00 0.00 0.00 44 1015.5
20260904232548 81 234 0.0 0.0 0.00 0.00 0.00 45 1015.6
20260904232048 81 204 0.0 0.0 0.00 0.00 0.00 45 1015.6
20260904231548 81 226 0.0 0.0 0.00 0.00 0.00 45 1015.6
20260904231047 81 239 0.0 0.0 0.00 0.00 0.00 45 1015.6
20260904230547 81 258 0.0 0.0 0.00 0.00 0.00 45 1015.6
20260904230047 81 237 0.0 0.0 0.00 0.00 0.00 45 1015.6
20260904225547 81 242 0.0 0.0 0.00 0.00 0.00 45 1015.6
20260904225046 81 243 0.0 0.0 0.00 0.00 0.00 45 1015.6
20260904224546 81 240 0.0 0.0 0.00 0.00 0.00 44 1015.6
20260904224046 81 247 0.0 0.0 0.00 0.00 0.00 44 1015.6
20260904223545 81 224 0.0 0.0 0.00 0.00 0.00 44 1015.7
20260904223045 81 222 0.0 0.0 0.00 0.00 0.00 44 1015.7
20260904222545 81 204 0.0 0.0 0.00 0.00 0.00 44 1015.7
20260904222045 81 228 0.0 0.0 0.00 0.00 0.00 44 1015.7
20260904221544 82 239 0.0 0.0 0.00 0.00 0.00 43 1015.8
20260904221044 82 230 0.0 0.0 0.00 0.00 0.00 43 1015.7
20260904220544 82 237 0.0 0.0 0.00 0.00 0.00 43 1015.8